Regional Weather Roundup
Issued by NWS Sioux Falls, SD

Home | Current Version | Previous Version | Graphics & Text | Print | Product List | Glossary On
Versions: 1 2 3 4 5 6 7 8 9 10 11 12 13 14 15 16 17 18 19 20 21 22 23 24 25 26 27 28 29 30 31 32 33 34 35 36 37 38 39 40 41 42 43 44 45 46 47 48 49 50
000
ASUS43 KFSD 021510
RWRFSD

WEATHER ROUNDUP FOR SE SOUTH DAKOTA/SW MINNESOTA/NW IOWA
NATIONAL WEATHER SERVICE SIOUX FALLS SD
1000 AM CDT MON MAY 02 2016

NOTE: "FAIR" INDICATES FEW OR NO CLOUDS BELOW 12,000 FEET WITH NO
SIGNIFICANT WEATHER AND OR OBSTRUCTIONS TO VISIBILITY.


SDZ038>040-050-052>070-021600-
SOUTHEAST SOUTH DAKOTA

CITY           SKY/WX    TMP DP  RH WIND       PRES   REMARKS
BROOKINGS      SUNNY     54  38  54 NW7       30.11F
CHAMBERLAIN    CLOUDY    48  39  72 SW5       30.12F
HURON          CLOUDY    52  40  63 CALM      30.11F
MADISON        FAIR      55  37  50 NW9       30.12S
MITCHELL       MOSUNNY   53  41  63 NW6       30.13F
SIOUX FALLS    MOSUNNY   58  39  49 NW7       30.12F
WINNER         FAIR      54  38  54 SW7       30.13F
YANKTON        SUNNY     54  39  58 NW6       30.13S
$$

MNZ071-072-080-081-089-090-097-098-021600-
SOUTHWEST MINNESOTA

CITY           SKY/WX    TMP DP  RH WIND       PRES   REMARKS
FAIRMONT       SUNNY     54  34  47 N6        30.11F
JACKSON        SUNNY     55  36  47 CALM      30.12S
LUVERNE        SUNNY     52  37  58 CALM      30.13S
MARSHALL       SUNNY     58  35  42 N3        30.11F
MONTEVIDEO     SUNNY     59  39  47 NW3       30.11F
PIPESTONE      SUNNY     54  36  50 NW6       30.11S
REDWOOD FALLS  SUNNY     58  34  40 CALM      30.11S
TRACY          SUNNY     59  35  40 NW5       30.11F
WINDOM         SUNNY     57  36  44 CALM      30.12S
WORTHINGTON    SUNNY     56  36  47 VRB3      30.13R
$$

IAZ001>003-012>014-020>022-031-032-NEZ013-014-SDZ071-021600-
NORTHWEST IOWA

CITY           SKY/WX    TMP DP  RH WIND       PRES   REMARKS
CHEROKEE       SUNNY     52  45  76 CALM      30.14S
DENISON        SUNNY     55  43  62 VRB6      30.11F
ESTHERVILLE    SUNNY     55  39  54 NW6       30.12S
LE MARS        SUNNY     54  43  66 CALM      30.15S
ORANGE CITY    SUNNY     54  41  62 NW3       30.13S
SHELDON        SUNNY     52  41  66 W6        30.12S
SIOUX CITY     SUNNY     54  43  66 NW5       30.15S
SPENCER        SUNNY     57  38  48 CALM      30.13S
STORM LAKE     SUNNY     55  37  50 N6        30.13F
$$

ABBREVIATIONS USED IN REMARKS
   TC - TEMPERATURE IN CELSIUS
  WCI - WIND CHILL INDEX
   HX - HEAT INDEX
  VSB - VISIBILITY




USA.gov is the U.S. government's official web portal to all federal, state and local government web resources and services.